Wind_Speed
12 12 11 11 11 11 10 9 9 8 8 8 9 9 9 8 9 9 9 8 8 9 8 8 7 6 6 6 7 7 7 7 7 7 7 7 7 7 7 8 8 8 7
13 12 12 11 11 11 10 9 9 9 9 9 9 9 9 9 9 9 9 9 8 9 9 9 7 7 7 7 8 8 7 7 7 7 7 8 8 7 7 7 7 7 7
14 13 12 12 12 11 11 10 10 10 10 10 10 9 9 8 9 9 9 9 8 9 10 9 9 8 8 8 8 8 8 9 8 8 8 9 9 8 8 8 8 8 7
17 15 13 13 12 11 11 11 11 11 11 10 10 10 9 9 9 10 10 10 10 10 10 10 10 9 9 9 9 9 9 8 8 9 9 9 9 9 8 8 9 9 8
17 15 14 13 13 12 12 12 12 11 11 11 10 10 9 9 10 10 10 10 10 10 10 11 11 10 10 10 10 10 10 9 9 9 9 10 10 10 9 9 9 8 8
18 17 15 15 14 14 13 13 13 12 11 11 11 11 10 10 10 10 10 10 10 11 11 11 11 10 10 10 10 11 11 10 10 10 9 9 10 9 9 10 10 10 10
19 18 16 15 15 15 14 14 13 13 12 12 12 11 11 11 11 11 11 10 11 11 11 10 10 10 10 10 10 11 11 11 10 10 10 10 10 10 10 10 10 10 11
19 18 17 16 14 14 15 15 14 13 13 12 12 12 12 11 11 11 11 11 11 12 11 10 11 10 10 10 11 11 11 12 11 11 11 10 10 10 11 11 11 11 11
18 18 18 17 16 16 16 16 15 15 14 13 13 13 13 12 11 11 12 11 11 11 11 11 11 11 10 10 11 11 12 12 12 12 12 11 10 11 11 12 12 12 12
20 19 19 18 18 17 17 17 17 16 15 14 14 14 13 12 12 12 12 12 12 12 11 12 12 11 11 11 11 12 12 12 12 13 13 13 12 13 13 13 14 14 14
20 20 20 20 21 20 19 18 18 18 17 16 15 15 14 14 13 13 13 13 13 12 13 13 12 12 12 12 12 12 13 13 13 14 14 14 15 15 15 16 16 16 16
21 21 21 21 21 21 20 20 19 19 18 17 17 17 16 15 15 15 14 14 14 14 14 14 13 13 13 13 13 13 14 14 14 15 15 16 16 17 16 16 16 17 17
23 23 22 22 22 23 23 23 21 20 20 19 18 18 17 17 17 17 16 16 16 15 15 15 14 14 14 14 14 14 14 15 15 16 16 17 18 18 18 17 18 18 18
23 24 23 23 23 24 24 23 23 22 21 20 20 20 20 19 19 19 19 18 18 17 17 16 16 16 16 16 15 15 15 15 16 16 17 17 18 19 19 19 19 20 20
23 23 24 24 24 24 24 24 24 23 23 22 22 21 21 20 20 19 19 19 18 18 18 18 18 18 17 17 17 17 17 17 18 18 19 19 19 20 20 21 21 21 21
23 23 23 23 23 23 23 23 24 24 23 22 22 22 21 21 21 20 19 20 20 20 21 21 20 20 19 19 19 19 19 19 20 20 21 21 21 21 21 22 22 22 22
23 22 23 23 23 24 24 24 24 24 23 23 23 22 22 22 22 20 20 19 20 21 21 21 21 20 20 20 20 19 20 21 22 22 22 22 22 23 22 22 22 23 24
23 23 24 24 25 25 26 26 25 24 24 24 24 24 24 23 23 23 21 20 21 21 21 21 21 21 21 21 21 22 22 21 22 22 22 23 23 24 24 24 23 23 24
23 23 23 24 25 25 25 26 26 25 25 25 24 23 23 22 22 24 23 22 23 23 22 22 22 22 22 22 22 23 24 24 23 23 23 24 24 24 25 24 24 24 25
23 24 24 23 23 24 25 26 26 25 25 25 25 24 24 24 23 24 26 25 25 24 23 23 23 23 23 23 23 25 25 25 24 24 24 24 25 25 25 25 25 25 26
24 24 24 25 25 25 24 24 25 24 24 24 24 25 26 25 25 25 26 26 26 25 25 25 25 25 25 25 25 25 26 26 26 25 25 25 26 26 26 26 26 27 26
24 24 25 25 25 25 24 24 24 24 25 26 25 25 26 26 26 26 26 27 27 26 26 25 26 26 26 26 26 25 26 26 26 26 26 26 26 26 26 26 27 27 27
24 24 25 25 24 24 24 25 26 26 26 27 26 26 26 25 26 27 26 27 27 26 26 26 26 27 26 27 26 26 27 27 27 26 26 26 26 26 26 27 27 28 28
25 25 25 25 25 24 24 25 26 27 28 28 27 27 27 27 27 27 27 27 26 26 26 26 26 26 26 26 26 26 27 28 28 28 27 27 27 27 27 28 28 29 29
25 25 25 25 25 25 25 25 26 27 28 28 28 28 28 29 29 28 27 26 26 27 27 27 26 26 26 27 27 27 28 28 28 28 28 28 29 29 28 28 28 29 29
26 25 26 26 26 26 26 26 26 27 26 26 27 28 28 29 28 27 27 27 26 27 27 27 27 27 28 28 28 28 28 29 28 28 28 27 27 27 28 29 29 30 29
Wind_Direction
285 289 290 288 290 290 289 293 293 294 300 309 317 320 323 321 321 321 322 325 326 326 321 317 313 305 296 290 288 289 285 282 278 282 287 292 290 290 289 286 278 270 271
284 285 288 289 287 287 287 286 288 290 293 301 306 310 313 315 316 314 316 320 321 322 319 313 309 302 295 290 287 286 287 281 277 281 281 284 285 283 289 290 281 271 273
278 282 285 287 284 278 280 280 281 285 289 294 298 303 307 307 309 312 313 315 315 316 317 311 304 301 293 286 286 282 287 283 275 275 277 276 275 274 283 287 281 276 272
275 276 279 283 281 277 275 278 279 280 283 288 295 297 301 301 303 304 306 306 305 307 311 311 305 296 290 286 284 281 282 281 275 269 272 275 275 277 279 281 280 277 277
269 273 277 279 277 275 274 274 275 276 278 282 289 293 296 296 298 301 304 304 303 303 305 306 303 295 291 286 281 279 278 277 276 276 277 276 276 275 272 277 279 279 279
268 270 272 274 272 272 273 274 274 274 276 278 284 287 288 290 292 296 301 302 302 307 307 303 298 294 291 286 281 278 275 276 276 277 278 278 276 272 271 275 278 277 277
264 263 263 266 265 268 271 272 274 275 276 277 280 282 282 284 286 292 296 296 298 305 304 304 299 297 290 283 280 279 276 273 273 274 278 278 276 271 275 277 279 279 278
267 263 263 260 262 269 273 271 274 279 279 275 276 277 278 280 282 288 292 296 301 303 296 295 295 293 291 283 279 277 277 274 271 270 274 277 277 276 278 280 282 282 280
264 264 261 256 260 267 273 273 274 274 274 270 271 273 273 275 277 282 286 290 294 300 299 292 292 291 290 288 283 278 278 273 269 268 270 272 274 275 276 280 283 282 279
263 262 262 261 261 265 269 270 270 269 269 270 270 268 268 271 275 278 281 284 289 295 299 297 291 290 288 288 283 279 277 275 271 267 267 269 271 274 278 281 283 282 280
268 267 264 264 263 264 264 264 266 268 267 266 266 264 264 267 272 273 278 283 288 291 295 296 293 289 288 287 286 283 280 278 274 270 268 268 269 272 277 280 282 283 282
265 266 264 266 264 263 262 262 263 265 266 265 264 263 259 263 268 270 272 277 281 285 289 291 289 287 287 287 284 283 278 276 276 273 272 272 272 273 278 280 281 281 282
264 265 263 260 263 262 261 262 260 263 266 266 266 266 258 258 264 267 269 271 276 280 283 286 285 286 286 286 284 282 281 278 276 275 275 276 275 275 278 280 280 279 278
262 265 263 261 262 262 263 262 262 263 264 264 265 266 263 263 263 263 265 267 270 275 278 280 282 284 283 282 282 282 282 280 278 278 278 277 276 277 278 279 279 278 278
263 265 262 260 261 264 265 265 263 263 265 262 262 264 264 265 266 264 263 266 268 271 275 278 280 281 280 278 279 279 280 278 279 280 280 279 277 277 277 277 277 277 277
262 263 261 260 262 265 265 265 263 264 265 265 266 263 266 264 267 263 263 265 266 269 274 276 276 277 279 277 279 279 278 278 280 280 279 278 277 276 277 277 276 275 276
259 261 263 260 261 263 265 264 264 264 265 265 265 266 266 265 262 264 267 265 266 269 272 273 274 276 278 278 278 280 280 279 279 279 278 278 277 277 278 278 277 275 274
261 263 262 261 261 262 265 265 263 264 264 264 265 266 265 265 263 263 266 265 265 268 270 270 272 275 277 278 279 280 282 283 281 280 280 279 277 278 277 278 279 279 278
263 266 267 263 261 260 264 265 264 265 264 263 265 263 265 267 267 264 263 265 266 267 269 272 272 274 275 277 279 280 282 284 284 283 282 283 281 282 281 279 279 281 281
264 266 268 267 263 262 264 263 261 263 263 264 265 265 265 266 269 267 264 266 266 264 266 269 271 273 275 278 278 278 281 283 284 284 283 282 280 281 282 282 282 282 281
264 266 269 269 265 262 260 260 258 260 262 264 267 267 267 266 269 269 267 266 266 266 268 269 270 272 275 277 279 280 282 283 283 282 282 282 280 281 282 283 282 281 280
267 269 271 270 268 263 259 259 259 260 262 264 267 269 268 268 268 268 268 267 267 268 268 271 272 274 274 276 279 281 283 283 281 280 280 281 280 282 283 282 282 282 281
271 271 273 271 269 266 264 264 263 262 262 264 266 268 267 267 269 268 269 270 269 270 269 270 271 273 275 276 279 281 282 282 281 280 280 281 281 281 282 282 282 283 283
272 271 273 271 269 266 265 265 265 264 264 265 265 265 265 266 268 268 268 268 269 269 270 271 272 274 276 277 279 281 282 282 282 282 282 282 282 283 283 284 283 282 281
273 273 271 271 270 266 266 267 267 266 264 263 263 263 263 265 266 266 267 268 268 269 270 271 272 275 276 277 277 279 281 282 282 283 284 284 284 283 283 283 283 283 283
270 271 273 273 272 270 270 271 269 266 266 265 264 265 266 266 265 266 266 266 268 269 271 272 273 275 277 277 278 280 280 281 281 283 284 286 287 287 286 284 283 283 284
Height
5887 5887 5886 5885 5884 5884 5884 5883 5883 5882 5882 5881 5880 5879 5878 5877 5876 5875 5874 5873 5872 5871 5870 5869 5868 5867 5867 5866 5866 5865 5865 5865 5864 5864 5864 5863 5863 5862 5861 5861 5860 5860 5859
5883 5884 5883 5882 5882 5881 5881 5881 5881 5880 5879 5878 5878 5877 5876 5874 5873 5872 5871 5871 5870 5869 5868 5867 5866 5866 5865 5865 5864 5863 5863 5863 5862 5862 5862 5862 5862 5860 5859 5859 5858 5858 5857
5880 5880 5880 5879 5879 5878 5878 5878 5878 5877 5876 5875 5875 5874 5873 5872 5871 5870 5869 5869 5868 5867 5866 5865 5864 5864 5863 5863 5862 5861 5861 5861 5860 5860 5860 5860 5860 5859 5858 5857 5857 5856 5855
5877 5877 5876 5876 5876 5875 5875 5875 5875 5874 5873 5872 5872 5871 5870 5869 5869 5868 5867 5866 5865 5865 5864 5863 5862 5861 5861 5860 5860 5859 5859 5859 5858 5858 5858 5857 5857 5857 5856 5856 5855 5854 5854
5872 5873 5873 5872 5872 5872 5872 5872 5872 5871 5870 5869 5868 5868 5867 5867 5866 5865 5864 5864 5863 5862 5861 5860 5860 5859 5858 5858 5857 5857 5857 5856 5856 5856 5855 5855 5854 5854 5854 5854 5853 5852 5852
5868 5868 5868 5869 5869 5868 5868 5868 5868 5867 5867 5866 5865 5865 5864 5864 5863 5862 5861 5861 5860 5859 5859 5857 5857 5856 5855 5855 5854 5854 5854 5854 5854 5853 5853 5852 5852 5851 5851 5851 5851 5850 5850
5863 5863 5863 5864 5864 5864 5864 5864 5863 5863 5863 5862 5862 5861 5861 5860 5860 5859 5858 5857 5857 5856 5856 5855 5854 5853 5853 5852 5852 5851 5851 5851 5851 5850 5850 5849 5849 5848 5848 5848 5848 5847 5847
5857 5858 5859 5860 5860 5860 5859 5859 5858 5859 5859 5859 5858 5857 5857 5857 5856 5856 5855 5854 5854 5853 5852 5852 5851 5850 5850 5849 5849 5848 5848 5848 5848 5847 5847 5847 5846 5846 5845 5845 5844 5844 5844
5851 5852 5854 5855 5855 5855 5855 5855 5855 5855 5854 5854 5854 5854 5853 5853 5852 5852 5851 5851 5851 5850 5849 5849 5848 5848 5847 5846 5846 5845 5845 5844 5844 5844 5844 5844 5843 5843 5842 5842 5841 5841 5840
5847 5847 5848 5850 5850 5850 5851 5851 5851 5850 5850 5850 5850 5849 5849 5849 5849 5848 5847 5847 5847 5847 5846 5845 5845 5845 5844 5843 5843 5842 5841 5841 5841 5840 5840 5840 5840 5839 5839 5838 5838 5837 5836
5841 5842 5843 5844 5845 5846 5845 5846 5846 5846 5846 5845 5845 5845 5845 5845 5845 5844 5844 5844 5843 5843 5842 5842 5841 5841 5840 5840 5839 5838 5837 5837 5837 5836 5836 5836 5836 5836 5835 5834 5833 5833 5832
5835 5836 5837 5838 5839 5840 5840 5840 5840 5841 5841 5840 5841 5840 5839 5840 5840 5840 5840 5840 5840 5839 5839 5838 5837 5837 5836 5836 5835 5834 5833 5833 5833 5832 5832 5832 5832 5831 5831 5830 5829 5828 5827
5829 5830 5831 5832 5833 5833 5834 5833 5833 5835 5836 5836 5835 5835 5834 5834 5835 5835 5835 5835 5835 5835 5835 5834 5833 5833 5832 5831 5831 5830 5829 5829 5828 5828 5828 5827 5827 5826 5826 5825 5824 5823 5822
5823 5823 5824 5825 5826 5827 5827 5827 5828 5829 5829 5830 5830 5830 5829 5829 5830 5829 5829 5830 5830 5830 5830 5829 5829 5828 5827 5827 5826 5825 5825 5824 5824 5823 5823 5822 5821 5821 5820 5820 5818 5817 5817
5816 5817 5818 5819 5820 5820 5820 5821 5822 5822 5823 5823 5823 5823 5824 5824 5823 5823 5823 5824 5824 5825 5825 5824 5823 5823 5822 5822 5821 5820 5820 5819 5819 5818 5817 5817 5816 5815 5814 5814 5813 5812 5811
5810 5811 5811 5812 5813 5813 5814 5814 5815 5816 5816 5816 5816 5815 5816 5817 5817 5816 5817 5818 5818 5819 5819 5819 5817 5817 5816 5816 5816 5815 5814 5813 5813 5812 5811 5810 5810 5809 5808 5807 5806 5805 5804
5804 5804 5805 5805 5806 5806 5807 5807 5808 5808 5809 5810 5810 5809 5810 5811 5811 5811 5810 5811 5813 5813 5813 5812 5811 5810 5810 5810 5809 5809 5808 5807 5806 5805 5805 5804 5803 5802 5801 5800 5799 5798 5797
5796 5797 5797 5798 5798 5799 5799 5800 5801 5802 5803 5803 5803 5803 5804 5804 5804 5804 5804 5806 5806 5807 5807 5806 5805 5805 5804 5804 5803 5802 5801 5800 5799 5798 5798 5797 5796 5795 5794 5792 5791 5790 5789
5790 5790 5790 5790 5791 5791 5792 5793 5794 5795 5795 5796 5796 5797 5797 5797 5797 5797 5797 5799 5800 5800 5800 5799 5799 5798 5798 5797 5797 5796 5795 5793 5793 5791 5790 5789 5788 5787 5786 5785 5784 5783 5781
5783 5783 5783 5783 5784 5784 5785 5786 5787 5788 5788 5789 5789 5790 5791 5791 5791 5791 5791 5791 5792 5792 5792 5792 5792 5791 5791 5790 5789 5789 5788 5786 5785 5784 5783 5782 5781 5780 5778 5777 5776 5775 5774
5776 5776 5777 5777 5777 5777 5778 5779 5780 5780 5781 5782 5782 5783 5783 5784 5784 5784 5783 5784 5785 5784 5784 5784 5784 5784 5783 5782 5782 5781 5780 5779 5778 5777 5776 5774 5772 5771 5770 5769 5768 5767 5766
5769 5770 5769 5769 5769 5770 5770 5771 5772 5773 5774 5774 5775 5775 5776 5776 5776 5776 5776 5777 5777 5777 5777 5776 5776 5776 5775 5775 5774 5773 5772 5771 5770 5769 5767 5766 5764 5763 5762 5760 5759 5758 5757
5761 5762 5762 5762 5762 5761 5762 5763 5764 5765 5766 5766 5767 5767 5768 5768 5768 5768 5769 5769 5769 5769 5769 5769 5769 5768 5768 5767 5766 5766 5764 5763 5761 5760 5759 5757 5756 5755 5754 5752 5751 5749 5748
5754 5754 5755 5755 5754 5754 5755 5755 5756 5756 5757 5757 5758 5759 5760 5760 5760 5760 5760 5761 5761 5761 5761 5761 5761 5760 5760 5759 5758 5757 5756 5754 5752 5751 5750 5749 5748 5746 5745 5743 5742 5740 5739
5747 5746 5747 5747 5747 5746 5747 5747 5747 5747 5748 5748 5750 5750 5751 5752 5752 5752 5752 5752 5753 5753 5753 5753 5752 5752 5751 5751 5750 5749 5748 5746 5745 5743 5742 5740 5739 5737 5735 5734 5732 5731 5729
5739 5739 5739 5739 5738 5738 5738 5738 5739 5739 5739 5740 5741 5741 5742 5743 5743 5744 5744 5744 5745 5745 5745 5745 5744 5743 5743 5742 5742 5740 5739 5737 5735 5735 5733 5732 5730 5728 5726 5725 5723 5722 5720